2017-008BL

Last updated on Wed Mar 01 2017 00:15:03 GMT+0000 (Coordinated Universal Time)

1 42006U 17008BL 17059.81379389 .00001473 00000-0 67550-4 0 9990 2 42006 97.5102 121.4283 0006983 225.6223 134.4421 15.22026385 1832
UTC large
Height (km)
Speed (km/s)
/
Latitude / Longitude
Inclination (degrees)
Orbital Period (minutes)
Azimuth
Elevation
Range (km)
Doppler Factor

Next 0 passes for location: London (51.5072 / 0.1276)

Sorry there are no passes over London.